GW2037 Weather Reports


time (UTC)temp
F
wind
direction
speed
knots
gust
knots
rain 1hr
in
rain 24hr
in
rain mn
in
humidity
%
barometer
mb
20260504050557 0 0.0 0.0 0.00 0.00 0.00 1017.5
20260504045552 57 216 0.0 0.0 0.00 0.00 0.00 81 1017.4
20260504045052 57 216 0.0 0.0 0.00 0.00 0.00 81 1017.5
20260504044552 57 214 0.0 0.0 0.00 0.00 0.00 81 1017.5
20260504044052 57 214 0.0 0.0 0.00 0.00 0.00 82 1017.5
20260504043552 57 214 0.0 0.0 0.00 0.00 0.00 81 1017.6
20260504043346 57 214 0.0 0.0 0.00 0.00 0.00 81 1017.4
20260504042552 57 214 0.0 0.0 0.00 0.00 0.00 80 1017.5
20260504042050 58 214 0.0 0.0 0.00 0.00 0.00 81 1017.5
20260504041551 58 214 0.0 0.0 0.00 0.00 0.00 80 1017.5
20260504041050 57 214 0.0 0.0 0.00 0.00 0.00 80 1017.5
20260504040551 57 214 0.0 0.0 0.00 0.00 0.00 81 1017.6
20260504040050 57 214 0.0 0.0 0.00 0.00 0.00 82 1017.6
20260504035551 57 214 0.0 0.0 0.00 0.00 0.00 81 1017.5
20260504035051 57 214 0.0 0.0 0.00 0.00 0.00 82 1017.5
20260504034837 57 214 0.0 0.0 0.00 0.00 0.00 81 1017.5
20260504034050 57 214 0.0 0.0 0.00 0.00 0.00 81 1017.4
20260504033549 57 214 0.0 0.0 0.00 0.00 0.00 80 1017.5
20260504033049 58 154 0.0 0.0 0.00 0.00 0.00 80 1017.5
20260504032549 58 154 0.0 0.0 0.00 0.00 0.00 80 1017.5
20260504032049 58 154 0.0 0.0 0.00 0.00 0.00 81 1017.4
20260504031550 58 154 0.0 0.0 0.00 0.00 0.00 80 1017.4
20260504031049 58 154 0.0 0.0 0.00 0.00 0.00 80 1017.5
20260504030551 58 154 0.0 0.0 0.00 0.00 0.00 81 1017.4
20260504030050 58 154 0.0 0.0 0.00 0.00 0.00 79 1017.3
20260504025549 58 154 0.0 0.0 0.00 0.00 0.00 79 1017.4
20260504025048 59 154 0.0 0.0 0.00 0.00 0.00 79 1017.4
20260504024925 59 149 0.0 0.0 0.00 0.00 0.00 78 1017.3
20260504024921 59 149 0.0 0.0 0.00 0.00 0.00 79 1017.3
20260504023835 59 149 0.0 0.0 0.00 0.00 0.00 77 1017.3
20260504023050 59 149 0.0 0.0 0.00 0.00 0.00 77 1017.3
20260504022548 60 149 0.0 0.0 0.00 0.00 0.00 76 1017.4
20260504022050 60 149 0.0 0.9 0.00 0.00 0.00 75 1017.3
20260504021548 60 144 0.0 0.9 0.00 0.00 0.00 72 1017.2
20260504021047 60 144 0.0 0.0 0.00 0.00 0.00 70 1017.1
20260504020548 60 144 0.0 0.0 0.00 0.00 0.00 70 1017.1
20260504020050 60 144 0.0 0.0 0.00 0.00 0.00 74 1016.9
20260504015547 60 144 0.0 0.0 0.00 0.00 0.00 72 1016.8
20260504015047 61 144 0.0 0.0 0.00 0.00 0.00 72 1016.8
20260504014549 61 144 0.0 0.0 0.00 0.00 0.00 72 1016.9
20260504014049 61 144 0.0 0.0 0.00 0.00 0.00 72 1016.8
20260504013547 62 144 0.0 0.0 0.00 0.00 0.00 72 1016.8
20260504013046 62 144 0.0 0.0 0.00 0.00 0.00 70 1016.7
20260504012548 62 144 0.0 0.0 0.00 0.00 0.00 70 1016.7
20260504012047 62 144 0.0 0.0 0.00 0.00 0.00 69 1016.6
20260504011547 63 144 0.0 0.0 0.00 0.00 0.00 68 1016.6
20260504011046 63 144 0.0 0.0 0.00 0.00 0.00 67 1016.5
20260504010838 64 144 0.0 0.0 0.00 0.00 0.00 66 1016.4
20260504010336 64 144 0.0 0.0 0.00 0.00 0.00 64 1016.4
20260504005547 65 144 0.0 0.0 0.00 0.00 0.00 64 1016.4
20260504005048 65 144 0.0 0.0 0.00 0.00 0.00 62 1016.4
20260504004546 66 144 0.0 0.0 0.00 0.00 0.00 60 1016.3
20260504004046 66 144 0.0 0.0 0.00 0.00 0.00 58 1016.3
20260504003546 67 144 0.0 0.0 0.00 0.00 0.00 57 1016.1
20260504003041 67 144 0.0 0.0 0.00 0.00 0.00 57 1016.1
20260504002530 68 144 0.0 0.0 0.00 0.00 0.00 57 1016.2
20260504002033 68 144 0.0 0.0 0.00 0.00 0.00 55 1016.1
20260504001531 69 144 0.0 0.0 0.00 0.00 0.00 55 1016.1
20260504001032 69 144 0.0 0.0 0.00 0.00 0.00 56 1016.0
20260504000532 69 144 0.0 0.0 0.00 0.00 0.00 53 1016.0
20260504000033 70 144 0.0 0.0 0.00 0.00 0.00 52 1016.0
20260503235532 70 144 0.0 0.0 0.00 0.00 0.00 53 1016.0
20260503235324 70 144 0.0 0.0 0.00 0.00 0.00 51 1016.0
20260503234532 70 144 0.0 0.0 0.00 0.00 0.00 51 1016.0
20260503234508 71 144 0.0 0.0 0.00 0.00 0.00 51 1016.1
20260503234501 71 144 0.0 0.0 0.00 0.00 0.00 51 1016.1
20260503234452 71 144 0.0 0.0 0.00 0.00 0.00 52 1016.0
20260503232532 71 144 0.0 0.0 0.00 0.00 0.00 50 1016.1
20260503232031 72 144 0.0 0.9 0.00 0.00 0.00 50 1016.1
20260503231533 72 144 0.0 0.9 0.00 0.00 0.00 47 1016.1
20260503231031 72 144 0.0 0.9 0.00 0.00 0.00 45 1016.1
20260503230533 72 144 0.0 0.9 0.00 0.00 0.00 45 1016.2
20260503230031 72 144 0.0 0.9 0.00 0.00 0.00 45 1016.1
20260503225826 73 144 0.0 0.9 0.00 0.00 0.00 44 1016.2
20260503225032 73 144 0.0 0.9 0.00 0.00 0.00 44 1016.2
20260503224824 73 145 0.0 0.0 0.00 0.00 0.00 44 1016.1
20260503224320 73 145 0.0 0.9 0.00 0.00 0.00 45 1016.2
20260503223531 73 145 0.0 0.9 0.00 0.00 0.00 44 1016.2
20260503223032 73 137 0.0 0.9 0.00 0.00 0.00 42 1016.2
20260503222825 73 76 0.0 0.9 0.00 0.00 0.00 43 1016.2
20260503222027 73 168 0.0 1.7 0.00 0.00 0.00 42 1016.2
20260503221525 73 355 0.0 1.7 0.00 0.00 0.00 46 1016.2
20260503221018 73 11 0.0 0.9 0.00 0.00 0.00 43 1016.3
20260503220516 74 14 0.0 0.9 0.00 0.00 0.00 43 1016.3
20260503220018 74 96 0.0 0.9 0.00 0.00 0.00 44 1016.3
20260503215513 74 96 0.0 1.7 0.00 0.00 0.00 44 1016.4
20260503215008 74 133 0.9 1.7 0.00 0.00 0.00 39 1016.3
20260503214504 74 39 0.0 1.7 0.00 0.00 0.00 39 1016.4
20260503214255 74 343 0.0 1.7 0.00 0.00 0.00 39 1016.5
20260503213505 75 320 0.0 0.9 0.00 0.00 0.00 42 1016.5
20260503213004 76 320 0.0 1.7 0.00 0.00 0.00 38 1016.5
20260503212503 76 320 0.0 2.6 0.00 0.00 0.00 39 1016.6
20260503212004 77 275 0.0 3.5 0.00 0.00 0.00 36 1016.6
20260503211503 78 233 0.9 3.5 0.00 0.00 0.00 36 1016.6
20260503211005 78 173 0.0 0.9 0.00 0.00 0.00 36 1016.7
20260503210502 78 340 0.0 0.9 0.00 0.00 0.00 36 1016.8
20260503210002 78 334 0.0 4.3 0.00 0.00 0.00 37 1016.8
20260503205504 78 0 0.0 4.3 0.00 0.00 0.00 38 1016.8
20260503205003 79 137 0.9 1.7 0.00 0.00 0.00 34 1016.9
20260503204504 78 203 0.0 2.6 0.00 0.00 0.00 35 1017.0
20260503204004 79 42 0.0 2.6 0.00 0.00 0.00 34 1017.0
20260503203503 78 269 0.0 1.7 0.00 0.00 0.00 35 1017.1
20260503203004 78 244 0.0 1.7 0.00 0.00 0.00 35 1017.3
20260503202504 78 85 0.0 1.7 0.00 0.00 0.00 34 1017.3
20260503202002 77 155 0.0 2.6 0.00 0.00 0.00 35 1017.4
20260503201504 77 42 0.0 2.6 0.00 0.00 0.00 35 1017.5
20260503201004 78 214 0.9 2.6 0.00 0.00 0.00 33 1017.6
20260503200503 78 258 0.0 2.6 0.00 0.00 0.00 36 1017.7
20260503200004 78 324 0.0 3.5 0.00 0.00 0.00 35 1017.8
20260503195504 77 268 0.9 3.5 0.00 0.00 0.00 40 1017.8
20260503195002 77 35 0.9 2.6 0.00 0.00 0.00 38 1018.0
20260503194756 77 338 0.0 2.6 0.00 0.00 0.00 37 1018.1
20260503194004 78 16 0.9 2.6 0.00 0.00 0.00 36 1018.1
20260503193502 77 235 0.0 1.7 0.00 0.00 0.00 38 1018.1
20260503193305 76 324 0.9 2.6 0.00 0.00 0.00 36 1018.2
20260503192503 76 20 0.9 2.6 0.00 0.00 0.00 38 1018.1
20260503192003 75 34 0.9 2.6 0.00 0.00 0.00 38 1018.3
20260503191503 75 35 1.7 2.6 0.00 0.00 0.00 35 1018.4
20260503191002 76 6 0.9 2.6 0.00 0.00 0.00 37 1018.4
20260503190604 76 285 0.9 3.5 0.00 0.00 0.00 38 1018.6
20260503190540 76 34 0.9 3.5 0.00 0.00 0.00 37 1018.5
20260503185503 76 72 0.9 2.6 0.00 0.00 0.00 37 1018.6
20260503185003 76 310 0.0 1.7 0.00 0.00 0.00 34 1018.8
20260503184502 76 145 0.0 2.6 0.00 0.00 0.00 36 1018.8
20260503184002 76 32 0.0 3.5 0.00 0.00 0.00 36 1018.9
20260503183504 76 140 0.9 3.5 0.00 0.00 0.00 35 1018.9
20260503183259 76 286 0.0 3.5 0.00 0.00 0.00 34 1019.0
20260503182505 75 145 0.9 3.5 0.00 0.00 0.00 34 1019.1
20260503182006 76 329 1.7 3.5 0.00 0.00 0.00 37 1019.3
20260503181504 75 295 0.0 3.5 0.00 0.00 0.00 37 1019.4
20260503181003 75 71 0.9 3.5 0.00 0.00 0.00 36 1019.3
20260503180504 75 10 0.9 2.6 0.00 0.00 0.00 37 1019.5
20260503180003 75 320 0.9 3.5 0.00 0.00 0.00 36 1019.6
20260503175503 75 324 0.9 3.5 0.00 0.00 0.00 37 1019.7
20260503175305 76 289 0.0 2.6 0.00 0.00 0.00 35 1019.7
20260503174756 75 140 0.0 2.6 0.00 0.00 0.00 37 1019.8
20260503174002 75 10 0.9 2.6 0.00 0.00 0.00 37 1019.8
20260503173503 75 230 0.9 1.7 0.00 0.00 0.00 38 1019.8
20260503173003 76 195 0.0 1.7 0.00 0.00 0.00 35 1019.8
20260503172607 74 17 0.9 3.5 0.00 0.00 0.00 38 1020.0
20260503172543 75 217 0.9 1.7 0.00 0.00 0.00 35 1019.9
20260503171503 74 354 0.9 3.5 0.00 0.00 0.00 36 1020.2
20260503171303 75 336 0.9 1.7 0.00 0.00 0.00 35 1020.1
20260503170806 75 324 0.0 1.7 0.00 0.00 0.00 37 1020.1
20260503151005 69 353 0.9 0.9 0.00 0.00 0.00 46 1020.9
20260503150756 68 338 0.0 0.9 0.00 0.00 0.00 48 1020.9
20260503150251 68 285 0.0 1.7 0.00 0.00 0.00 51 1020.9
20260503131253 55 32 0.0 0.0 0.00 0.00 0.00 84 1020.0
20260503130505 54 32 0.0 0.0 0.00 0.00 0.00 84 1020.0
20260503110743 46 221 0.0 0.0 0.00 0.01 0.00 91 1019.1
20260503081425 48 302 0.0 0.9 0.00 0.12 0.00 87 1018.1
20260503080924 48 302 0.0 0.0 0.00 0.13 0.00 86 1018.0
20260503080425 48 302 0.0 0.0 0.00 0.14 0.00 86 1018.0
20260503080210 48 302 0.0 0.0 0.00 0.14 0.00 86 1018.0
20260503072924 49 0 0.0 0.0 0.00 0.27 0.00 84 1017.6
20260503072717 50 0 0.0 0.0 0.00 0.32 0.00 83 1017.5
20260503072011 50 0 0.0 0.0 0.00 0.37 0.00 82 1017.6
20260503071954 50 0 0.0 0.0 0.00 0.35 0.00 83 1017.5
20260503070922 50 0 0.0 0.0 0.00 0.40 0.00 81 1017.5
20260503070422 50 0 0.0 0.0 0.00 0.42 0.00 82 1017.5
20260503054920 54 0 0.0 0.0 0.00 0.70 0.00 73 1017.4
20260503054711 54 0 0.0 0.0 0.00 0.71 0.00 73 1017.4
20260503053920 55 0 0.0 0.0 0.00 0.71 0.00 80 1017.3
20260503053420 55 0 0.0 0.0 0.00 0.73 0.00 79 1017.2
20260503052920 55 0 0.0 0.0 0.00 0.76 0.00 78 1017.3
20260503052416 55 0 0.0 0.0 0.00 0.79 0.00 78 1017.2
20260503052214 56 0 0.0 0.0 0.00 0.81 0.00 78 1017.3